Location: Kuffner-Sternwarte
(48.2130°N, 16.2960°E)
Time: 16:09:05
(UTC+02:00)

COROT - Pass Details

Date: 25 May 2018
Orbit: 599 x 890 km, 90.0° (Epoch: 21 May)

Event Time Altitude Azimuth Distance (km) Brightness Sun altitude
Rises 22:11:20 0° 356° (N) 3,087 10.1 -12.0°
Reaches altitude 10° 22:13:35 10° 351° (N) 2,208 9.4 -12.2°
Maximum altitude 22:18:18 49° 278° (W) 972 6.9 -12.7°
Drops below altitude 10° 22:23:23 10° 204° (SSW) 2,375 8.3 -13.2°
Enters shadow 22:25:39 - 200° (SSW) 3,254 8.9 -13.4°
